| time (UTC) | temp C | wind direction | speed KPH | gust KPH | rain 1hr cm | rain 24hr cm | rain mn cm | humidity % | barometer mb |
| 20260906161536 | 26 | 91 | 0.0 | 0.0 | 0.00 | 0.61 | 0.03 | 83 | 1012.5 |
| 20260906160033 | 26 | 42 | 0.0 | 0.0 | 0.00 | 0.61 | 0.03 | 86 | 1012.6 |
| 20260906154531 | 26 | 44 | 0.0 | 3.2 | 0.00 | 0.64 | 0.03 | 86 | 1012.6 |
| 20260906153031 | 26 | 69 | 0.0 | 1.6 | 0.00 | 0.64 | 0.03 | 85 | 1012.9 |
| 20260906151528 | 25 | 71 | 0.0 | 1.6 | 0.00 | 0.64 | 0.03 | 86 | 1012.8 |
| 20260906150026 | 25 | 29 | 0.0 | 3.2 | 0.00 | 0.64 | 0.03 | 86 | 1012.8 |
| 20260906144534 | 25 | 67 | 0.0 | 1.6 | 0.00 | 0.64 | 0.03 | 86 | 1012.8 |
| 20260906143022 | 25 | 68 | 0.0 | 0.0 | 0.00 | 0.64 | 0.03 | 87 | 1012.7 |
| 20260906141523 | 24 | 67 | 0.0 | 0.0 | 0.00 | 0.64 | 0.03 | 88 | 1012.5 |
| 20260906140016 | 24 | 67 | 0.0 | 0.0 | 0.00 | 0.64 | 0.03 | 93 | 1012.4 |
| 20260906134522 | 23 | 68 | 0.0 | 0.0 | 0.00 | 0.64 | 0.03 | 93 | 1012.4 |
| 20260906133009 | 23 | 68 | 0.0 | 0.0 | 0.00 | 0.64 | 0.03 | 94 | 1012.3 |
| 20260906131507 | 23 | 68 | 0.0 | 0.0 | 0.00 | 0.64 | 0.03 | 95 | 1012.3 |
| 20260906130002 | 23 | 68 | 0.0 | 3.2 | 0.00 | 0.64 | 0.03 | 96 | 1012.3 |
| 20260906124559 | 22 | 97 | 0.0 | 0.0 | 0.00 | 0.64 | 0.03 | 98 | 1012.2 |
| 20260906123130 | 22 | 165 | 0.0 | 0.0 | 0.00 | 0.64 | 0.03 | 98 | 1012.2 |
| 20260906121553 | 22 | 165 | 0.0 | 0.0 | 0.00 | 0.64 | 0.03 | 99 | 1012.0 |
| 20260906120051 | 22 | 165 | 0.0 | 0.0 | 0.00 | 0.64 | 0.03 | 99 | 1011.8 |
| 20260906114553 | 22 | 165 | 0.0 | 0.0 | 0.00 | 0.64 | 0.03 | 99 | 1011.7 |
| 20260906113049 | 22 | 165 | 0.0 | 0.0 | 0.00 | 0.64 | 0.03 | 99 | 1011.7 |
| 20260906111546 | 22 | 165 | 0.0 | 0.0 | 0.00 | 0.64 | 0.03 | 99 | 1011.8 |
| 20260906110044 | 22 | 165 | 0.0 | 0.0 | 0.00 | 0.64 | 0.03 | 99 | 1011.7 |
| 20260906104542 | 22 | 165 | 0.0 | 0.0 | 0.00 | 0.64 | 0.03 | 99 | 1011.5 |
| 20260906103045 | 22 | 165 | 0.0 | 0.0 | 0.00 | 0.64 | 0.03 | 99 | 1011.2 |
| 20260906101542 | 22 | 165 | 0.0 | 0.0 | 0.00 | 0.64 | 0.03 | 99 | 1011.1 |
| 20260906100038 | 22 | 165 | 0.0 | 0.0 | 0.00 | 0.64 | 0.03 | 99 | 1010.7 |
| 20260906094537 | 22 | 165 | 0.0 | 0.0 | 0.00 | 0.64 | 0.03 | 99 | 1010.8 |
| 20260906093041 | 22 | 217 | 0.0 | 0.0 | 0.00 | 0.64 | 0.03 | 99 | 1010.7 |
| 20260906091550 | 22 | 217 | 0.0 | 0.0 | 0.00 | 0.64 | 0.03 | 99 | 1010.4 |
| 20260906090036 | 22 | 217 | 0.0 | 0.0 | 0.00 | 0.64 | 0.03 | 99 | 1010.3 |
| 20260906084536 | 22 | 217 | 0.0 | 0.0 | 0.00 | 0.64 | 0.03 | 99 | 1010.1 |
| 20260906083037 | 22 | 217 | 0.0 | 0.0 | 0.00 | 0.64 | 0.03 | 99 | 1010.1 |
| 20260906081536 | 22 | 217 | 0.0 | 0.0 | 0.00 | 0.64 | 0.03 | 99 | 1010.2 |
| 20260906080038 | 22 | 221 | 0.0 | 0.0 | 0.00 | 0.64 | 0.03 | 99 | 1010.0 |
| 20260906074540 | 22 | 221 | 0.0 | 0.0 | 0.03 | 0.64 | 0.03 | 99 | 1009.9 |
| 20260906073034 | 22 | 221 | 0.0 | 0.0 | 0.03 | 0.64 | 0.03 | 99 | 1009.7 |
| 20260906071531 | 22 | 221 | 0.0 | 0.0 | 0.03 | 0.64 | 0.03 | 99 | 1009.9 |
| 20260906070031 | 22 | 221 | 0.0 | 0.0 | 0.03 | 0.64 | 0.03 | 99 | 1009.9 |
| 20260906064530 | 22 | 221 | 0.0 | 0.0 | 0.00 | 0.61 | 0.00 | 98 | 1009.9 |
| 20260906063030 | 22 | 221 | 0.0 | 0.0 | 0.00 | 0.61 | 0.00 | 99 | 1010.0 |
| 20260906061527 | 22 | 221 | 0.0 | 0.0 | 0.00 | 0.61 | 0.00 | 99 | 1010.1 |
| 20260906060026 | 22 | 221 | 0.0 | 0.0 | 0.00 | 0.61 | 0.00 | 98 | 1010.0 |
| 20260906054527 | 22 | 221 | 0.0 | 0.0 | 0.00 | 0.61 | 0.00 | 98 | 1010.1 |
| 20260906053021 | 22 | 221 | 0.0 | 0.0 | 0.00 | 0.61 | 0.00 | 99 | 1010.3 |
| 20260906051516 | 22 | 221 | 0.0 | 0.0 | 0.00 | 0.61 | 0.00 | 99 | 1010.4 |
| 20260906050013 | 23 | 221 | 0.0 | 0.0 | 0.00 | 0.61 | 0.00 | 98 | 1010.5 |
| 20260906044508 | 23 | 221 | 0.0 | 0.0 | 0.00 | 0.61 | 0.00 | 98 | 1010.5 |
| 20260906043005 | 23 | 221 | 0.0 | 0.0 | 0.00 | 0.61 | 0.00 | 98 | 1010.5 |
| 20260906041602 | 23 | 221 | 0.0 | 0.0 | 0.00 | 0.61 | 0.00 | 98 | 1010.7 |
| 20260906040055 | 22 | 221 | 0.0 | 0.0 | 0.00 | 0.61 | 0.00 | 98 | 1010.8 |
| 20260906034554 | 23 | 221 | 0.0 | 0.0 | 0.00 | 0.61 | 0.58 | 98 | 1010.8 |
| 20260906033108 | 23 | 221 | 0.0 | 0.0 | 0.00 | 0.61 | 0.58 | 98 | 1010.8 |
| 20260906031552 | 23 | 221 | 0.0 | 0.0 | 0.00 | 0.61 | 0.58 | 98 | 1010.6 |
| 20260906030054 | 23 | 221 | 0.0 | 0.0 | 0.00 | 0.61 | 0.58 | 98 | 1010.7 |
| 20260906024553 | 23 | 221 | 0.0 | 0.0 | 0.00 | 0.61 | 0.58 | 98 | 1010.5 |
| 20260906023054 | 23 | 221 | 0.0 | 0.0 | 0.00 | 0.61 | 0.58 | 98 | 1010.5 |
| 20260906021552 | 23 | 221 | 0.0 | 0.0 | 0.00 | 0.61 | 0.58 | 98 | 1010.4 |
| 20260906020104 | 23 | 221 | 0.0 | 0.0 | 0.00 | 0.61 | 0.58 | 98 | 1010.4 |
| 20260906014549 | 23 | 221 | 0.0 | 0.0 | 0.00 | 0.61 | 0.58 | 98 | 1010.4 |
| 20260906013058 | 23 | 221 | 0.0 | 0.0 | 0.00 | 0.61 | 0.58 | 98 | 1010.5 |
| 20260906011600 | 23 | 221 | 0.0 | 0.0 | 0.00 | 0.61 | 0.58 | 98 | 1010.2 |
| 20260906010048 | 24 | 221 | 0.0 | 0.0 | 0.00 | 0.61 | 0.58 | 97 | 1009.8 |
| 20260906004553 | 24 | 221 | 0.0 | 0.0 | 0.00 | 0.61 | 0.58 | 97 | 1009.7 |
| 20260906003047 | 24 | 221 | 0.0 | 0.0 | 0.00 | 0.61 | 0.58 | 97 | 1009.5 |
| 20260906001548 | 24 | 221 | 0.0 | 0.0 | 0.00 | 0.61 | 0.58 | 97 | 1009.2 |
| 20260906000054 | 25 | 221 | 0.0 | 0.0 | 0.00 | 0.61 | 0.58 | 97 | 1009.2 |
| 20260905234548 | 25 | 221 | 0.0 | 0.0 | 0.00 | 0.81 | 0.58 | 97 | 1009.0 |
| 20260905233046 | 25 | 221 | 0.0 | 0.0 | 0.00 | 0.81 | 0.58 | 96 | 1009.0 |
| 20260905231544 | 25 | 221 | 0.0 | 0.0 | 0.00 | 0.81 | 0.58 | 96 | 1008.8 |
| 20260905230044 | 25 | 221 | 0.0 | 0.0 | 0.00 | 0.81 | 0.58 | 96 | 1008.5 |
| 20260905224550 | 25 | 221 | 0.0 | 0.0 | 0.00 | 0.97 | 0.58 | 95 | 1008.6 |
| 20260905223042 | 25 | 221 | 0.0 | 0.0 | 0.00 | 0.97 | 0.58 | 95 | 1008.5 |
| 20260905221540 | 25 | 221 | 0.0 | 0.0 | 0.00 | 0.97 | 0.58 | 96 | 1008.7 |
| 20260905220018 | 25 | 221 | 0.0 | 0.0 | 0.00 | 0.97 | 0.58 | 96 | 1009.0 |
| 20260905214519 | 24 | 221 | 0.0 | 0.0 | 0.00 | 0.97 | 0.58 | 97 | 1009.1 |
| 20260905213016 | 24 | 221 | 0.0 | 0.0 | 0.00 | 0.97 | 0.58 | 98 | 1008.8 |
| 20260905211515 | 24 | 221 | 0.0 | 0.0 | 0.00 | 0.97 | 0.58 | 98 | 1009.0 |
| 20260905210015 | 23 | 221 | 0.0 | 0.0 | 0.00 | 0.97 | 0.58 | 97 | 1009.5 |
| 20260905204515 | 23 | 221 | 0.0 | 0.0 | 0.00 | 0.97 | 0.58 | 98 | 1009.7 |
| 20260905203014 | 23 | 221 | 0.0 | 0.0 | 0.00 | 0.97 | 0.58 | 97 | 1009.2 |
| 20260905201512 | 23 | 221 | 0.0 | 0.0 | 0.00 | 0.97 | 0.58 | 97 | 1008.6 |
| 20260905200020 | 23 | 221 | 0.0 | 0.0 | 0.03 | 0.97 | 0.58 | 97 | 1008.7 |
| 20260905194513 | 23 | 221 | 0.0 | 0.0 | 0.23 | 0.97 | 0.58 | 96 | 1009.1 |
| 20260905193010 | 23 | 221 | 0.0 | 3.2 | 0.58 | 0.97 | 0.58 | 95 | 1008.7 |
| 20260905191507 | 23 | 207 | 0.0 | 0.0 | 0.58 | 0.97 | 0.58 | 94 | 1009.3 |
| 20260905190004 | 24 | 207 | 0.0 | 4.8 | 0.56 | 0.94 | 0.56 | 92 | 1009.1 |
| 20260905184620 | 26 | 46 | 0.0 | 16.1 | 0.36 | 0.71 | 0.36 | 82 | 1009.8 |
| 20260905183055 | 32 | 126 | 0.0 | 0.0 | 0.00 | 0.38 | 0.00 | 69 | 1009.6 |
| 20260905181559 | 33 | 219 | 0.0 | 0.0 | 0.00 | 0.38 | 0.00 | 67 | 1008.8 |
| 20260905180053 | 35 | 219 | 0.0 | 3.2 | 0.00 | 0.38 | 0.00 | 60 | 1008.9 |
| 20260905174549 | 35 | 165 | 1.6 | 9.7 | 0.00 | 0.38 | 0.00 | 62 | 1009.6 |
| 20260905173044 | 33 | 216 | 0.0 | 1.6 | 0.00 | 0.38 | 0.00 | 64 | 1009.8 |
| 20260905171543 | 33 | 199 | 0.0 | 6.4 | 0.00 | 0.38 | 0.00 | 64 | 1010.2 |
| 20260905170038 | 33 | 240 | 0.0 | 4.8 | 0.00 | 0.38 | 0.00 | 71 | 1010.4 |
| 20260905164534 | 32 | 214 | 0.0 | 4.8 | 0.00 | 0.38 | 0.00 | 68 | 1010.6 |
| 20260905163029 | 32 | 228 | 0.0 | 0.0 | 0.00 | 0.38 | 0.00 | 72 | 1010.9 |